Weather in Aviaport

Russia / Sakha (Yakutia) Republic     60°23′50″N   120°27′58″E
temp.,
°C
wind,
m/s
gust,
m/s
humid.,
%
clouds,
%
prec.,
mm/h
press.,
hPa
HPBL,
m
4 march, thu
thu400:00−33nw229569 0.0 102526
03:00−36nw119670 0.0 102719
06:00−37w129598 0.0 102820
09:00−33w389299 0.0 1029420
12:00−30w4891100 0.1 1030576
15:00−27wnw5988100 0.2 1030712
18:00−27wnw41088100 0.1 1031760
21:00−28w31289100 0.1 1033646
5 march, fri
fri500:00−29wnw398992 0.0 1034227
03:00−30w369070 0.0 1036105
06:00−32w239117 0.0 103661
09:00−31wsw28929 0.0 1037292
12:00−24w37832 0.0 1036682
15:00−20wsw357943 0.0 1034959
18:00−23sw229099 0.0 103226
21:00−29sw119153 0.0 103319
6 march, sat
sat600:00−31sse11950 0.0 103119
03:00−32sse11950 0.0 103119
06:00−33se11945 0.0 102919
09:00−30ese119232 0.0 102753
12:00−22sse238221 0.0 1024327
15:00−17sse237949 0.0 1022469
18:00−17ese1293100 0.0 102091
21:00−19ese1196100 0.0 102020
7 march, sun
sun700:00−19ese119799 0.0 101920
03:00−20ese1199100 0.2 101820
06:00−19ese1198100 0.1 101720
09:00−17ese1197100 0.2 101785
12:00−13s1291100 0.2 1015320
15:00−9ssw1290100 0.3 1014380
18:00−10ese1196100 0.1 101221
21:00−10se0197100 0.4 101321
8 march, mon
mon800:00−13s119999 0.1 101221
03:00−15ssw119998 0.1 101220
06:00−16s119999 0.1 101220
09:00−15s119798 0.1 101234
12:00−10ssw119298 0.1 1012229
15:00−7ssw229097 0.1 1012311
18:00−9ssw229694 0.1 101249
21:00−12ssw119595 0.1 101321